Time,TemperatureF,DewpointF,PressureIn,WindDirection,WindDirectionDegrees,WindSpeedMPH,WindSpeedGustMPH,Humidity,HourlyPrecipIn,Conditions,Clouds,dailyrainin,SoftwareType,DateUTC
2013-01-11 00:04:00,57.0,55.0,30.33,ENE,75,3.0,9.0,93,0.03,,,0.03,,2013-01-11 05:04:00,
2013-01-11 00:13:00,57.0,55.0,30.33,ENE,75,3.0,9.0,93,0.03,,,0.03,,2013-01-11 05:13:00,
2013-01-11 00:23:00,57.0,55.0,30.32,East,83,1.0,9.0,92,0.01,,,0.03,,2013-01-11 05:23:00,
2013-01-11 00:33:00,56.0,54.0,30.32,East,82,3.0,8.0,93,0.00,,,0.03,,2013-01-11 05:33:00,
2013-01-11 00:43:00,56.0,54.0,30.32,East,82,3.0,8.0,93,0.00,,,0.03,,2013-01-11 05:43:00,
2013-01-11 00:52:00,56.0,55.0,30.32,East,85,1.0,7.0,95,0.01,,,0.04,,2013-01-11 05:52:00,
2013-01-11 01:03:00,56.0,55.0,30.32,East,86,2.0,5.0,95,0.01,,,0.04,,2013-01-11 06:03:00,
2013-01-11 01:12:00,56.0,55.0,30.32,East,86,2.0,5.0,95,0.01,,,0.04,,2013-01-11 06:12:00,
2013-01-11 01:22:00,56.0,55.0,30.31,ENE,74,3.0,6.0,96,0.01,,,0.04,,2013-01-11 06:22:00,
2013-01-11 01:32:00,55.0,54.0,30.30,NE,44,2.0,7.0,96,0.01,,,0.04,,2013-01-11 06:32:00,
2013-01-11 01:42:00,55.0,54.0,30.30,NE,44,2.0,7.0,96,0.01,,,0.04,,2013-01-11 06:42:00,
2013-01-11 01:52:00,55.0,54.0,30.29,East,94,2.0,6.0,96,0.00,,,0.04,,2013-01-11 06:52:00,
2013-01-11 02:02:00,54.0,53.0,30.29,NNE,32,4.0,6.0,96,0.00,,,0.04,,2013-01-11 07:02:00,
2013-01-11 02:12:00,54.0,53.0,30.29,NNE,32,4.0,6.0,96,0.00,,,0.04,,2013-01-11 07:12:00,
2013-01-11 02:22:00,54.0,53.0,30.29,NE,48,2.0,8.0,96,0.00,,,0.04,,2013-01-11 07:22:00,
2013-01-11 02:32:00,54.0,53.0,30.28,North,355,3.0,7.0,96,0.00,,,0.04,,2013-01-11 07:32:00,
2013-01-11 02:42:00,54.0,53.0,30.28,SE,133,4.0,10.0,96,0.00,,,0.04,,2013-01-11 07:42:00,
2013-01-11 02:52:00,54.0,53.0,30.28,SE,133,4.0,10.0,96,0.00,,,0.04,,2013-01-11 07:52:00,
2013-01-11 03:02:00,53.0,52.0,30.28,SE,135,5.0,9.0,96,0.00,,,0.04,,2013-01-11 08:02:00,
2013-01-11 03:12:00,53.0,52.0,30.27,NE,44,3.0,9.0,96,0.00,,,0.04,,2013-01-11 08:12:00,
2013-01-11 03:22:00,53.0,52.0,30.27,NE,44,3.0,9.0,96,0.00,,,0.04,,2013-01-11 08:22:00,
2013-01-11 03:32:00,52.0,51.0,30.27,NNE,26,2.0,8.0,96,0.00,,,0.04,,2013-01-11 08:32:00,
2013-01-11 03:42:00,52.0,51.0,30.27,NNE,26,2.0,8.0,96,0.00,,,0.04,,2013-01-11 08:42:00,
2013-01-11 03:52:00,52.0,51.0,30.26,East,95,4.0,11.0,97,0.00,,,0.04,,2013-01-11 08:52:00,
2013-01-11 04:02:00,52.0,51.0,30.25,NE,55,5.0,10.0,97,0.01,,,0.05,,2013-01-11 09:02:00,
2013-01-11 04:12:00,52.0,51.0,30.25,NE,55,5.0,10.0,97,0.01,,,0.05,,2013-01-11 09:12:00,
2013-01-11 04:23:00,51.0,50.0,30.24,ESE,103,6.0,11.0,97,0.01,,,0.05,,2013-01-11 09:23:00,
2013-01-11 04:32:00,51.0,50.0,30.24,ESE,103,6.0,11.0,97,0.01,,,0.05,,2013-01-11 09:32:00,
2013-01-11 04:42:00,51.0,50.0,30.24,ESE,103,6.0,11.0,97,0.01,,,0.05,,2013-01-11 09:42:00,
2013-01-11 04:52:00,51.0,50.0,30.23,SE,138,4.0,12.0,97,0.01,,,0.05,,2013-01-11 09:52:00,
2013-01-11 05:02:00,51.0,50.0,30.24,East,85,4.0,10.0,97,0.01,,,0.06,,2013-01-11 10:02:00,
2013-01-11 05:12:00,51.0,50.0,30.24,East,85,4.0,10.0,97,0.01,,,0.06,,2013-01-11 10:12:00,
2013-01-11 05:22:00,52.0,51.0,30.24,NNE,21,1.0,8.0,97,0.01,,,0.06,,2013-01-11 10:22:00,
2013-01-11 05:32:00,52.0,51.0,30.24,West,259,0.0,3.0,97,0.01,,,0.06,,2013-01-11 10:32:00,
2013-01-11 05:42:00,52.0,51.0,30.24,West,259,0.0,3.0,97,0.01,,,0.06,,2013-01-11 10:42:00,
2013-01-11 05:52:00,51.0,50.0,30.23,East,90,2.0,7.0,97,0.01,,,0.06,,2013-01-11 10:52:00,
2013-01-11 06:03:00,51.0,50.0,30.22,East,94,4.0,10.0,97,0.00,,,0.06,,2013-01-11 11:03:00,
2013-01-11 06:12:00,51.0,50.0,30.22,East,94,4.0,10.0,97,0.00,,,0.06,,2013-01-11 11:12:00,
2013-01-11 06:22:00,50.0,49.0,30.22,ENE,68,3.0,12.0,97,0.01,,,0.07,,2013-01-11 11:22:00,
2013-01-11 06:33:00,50.0,49.0,30.22,ESE,104,3.0,9.0,97,0.01,,,0.07,,2013-01-11 11:33:00,
2013-01-11 06:43:00,50.0,49.0,30.22,ESE,104,3.0,9.0,97,0.01,,,0.07,,2013-01-11 11:43:00,
2013-01-11 06:53:00,50.0,49.0,30.22,ESE,104,3.0,9.0,97,0.01,,,0.07,,2013-01-11 11:53:00,
2013-01-11 07:03:00,50.0,49.0,30.22,NE,46,5.0,10.0,97,0.01,,,0.07,,2013-01-11 12:03:00,
2013-01-11 07:12:00,50.0,49.0,30.22,NE,46,5.0,10.0,97,0.01,,,0.07,,2013-01-11 12:12:00,
2013-01-11 07:23:00,50.0,49.0,30.22,East,87,2.0,8.0,97,0.01,,,0.08,,2013-01-11 12:23:00,
2013-01-11 07:33:00,51.0,50.0,30.22,ESE,123,3.0,9.0,97,0.01,,,0.08,,2013-01-11 12:33:00,
2013-01-11 07:43:00,51.0,50.0,30.22,ESE,123,3.0,9.0,97,0.01,,,0.08,,2013-01-11 12:43:00,
2013-01-11 07:52:00,51.0,50.0,30.22,NE,47,4.0,8.0,97,0.01,,,0.08,,2013-01-11 12:52:00,
2013-01-11 08:03:00,51.0,50.0,30.23,SSE,150,3.0,10.0,97,0.01,,,0.08,,2013-01-11 13:03:00,
2013-01-11 08:13:00,51.0,50.0,30.23,SSE,150,3.0,10.0,97,0.01,,,0.08,,2013-01-11 13:13:00,
2013-01-11 08:23:00,51.0,50.0,30.22,South,178,3.0,10.0,97,0.01,,,0.09,,2013-01-11 13:23:00,
2013-01-11 08:33:00,51.0,50.0,30.23,East,87,3.0,11.0,97,0.02,,,0.10,,2013-01-11 13:33:00,
2013-01-11 08:43:00,51.0,50.0,30.23,East,87,3.0,11.0,97,0.02,,,0.10,,2013-01-11 13:43:00,
2013-01-11 08:52:00,51.0,50.0,30.23,SW,236,4.0,11.0,97,0.03,,,0.11,,2013-01-11 13:52:00,
2013-01-11 09:03:00,52.0,51.0,30.23,East,82,4.0,11.0,97,0.05,,,0.13,,2013-01-11 14:03:00,
2013-01-11 09:12:00,52.0,51.0,30.23,East,82,4.0,11.0,97,0.05,,,0.13,,2013-01-11 14:12:00,
2013-01-11 09:23:00,52.0,51.0,30.24,ESE,113,1.0,4.0,97,0.06,,,0.15,,2013-01-11 14:23:00,
2013-01-11 09:33:00,52.0,51.0,30.24,ESE,105,3.0,8.0,97,0.06,,,0.16,,2013-01-11 14:33:00,
2013-01-11 09:43:00,52.0,51.0,30.24,ESE,105,3.0,8.0,97,0.06,,,0.16,,2013-01-11 14:43:00,
2013-01-11 09:53:00,51.0,50.0,30.24,SSE,148,3.0,9.0,97,0.06,,,0.17,,2013-01-11 14:53:00,
2013-01-11 10:03:00,52.0,51.0,30.25,NE,53,0.0,6.0,97,0.07,,,0.20,,2013-01-11 15:03:00,
2013-01-11 10:13:00,52.0,51.0,30.24,SE,125,1.0,5.0,97,0.05,,,0.20,,2013-01-11 15:13:00,
2013-01-11 10:23:00,52.0,51.0,30.24,SE,125,1.0,5.0,97,0.05,,,0.20,,2013-01-11 15:23:00,
2013-01-11 10:33:00,51.0,50.0,30.24,East,101,4.0,7.0,97,0.05,,,0.21,,2013-01-11 15:33:00,
2013-01-11 10:43:00,51.0,50.0,30.24,East,101,4.0,7.0,97,0.05,,,0.21,,2013-01-11 15:43:00,
2013-01-11 10:52:00,51.0,50.0,30.24,ESE,118,1.0,5.0,97,0.05,,,0.22,,2013-01-11 15:52:00,
2013-01-11 11:03:00,52.0,51.0,30.24,ESE,103,1.0,3.0,97,0.02,,,0.22,,2013-01-11 16:03:00,
2013-01-11 11:12:00,52.0,51.0,30.24,NNE,17,1.0,4.0,97,0.02,,,0.22,,2013-01-11 16:12:00,
2013-01-11 11:23:00,52.0,51.0,30.24,NNE,17,1.0,4.0,97,0.02,,,0.22,,2013-01-11 16:23:00,
2013-01-11 11:33:00,52.0,51.0,30.23,East,101,0.0,4.0,97,0.01,,,0.22,,2013-01-11 16:33:00,
2013-01-11 11:43:00,52.0,51.0,30.23,East,101,0.0,4.0,97,0.01,,,0.22,,2013-01-11 16:43:00,
2013-01-11 11:53:00,52.0,51.0,30.22,SE,142,1.0,4.0,98,0.01,,,0.23,,2013-01-11 16:53:00,
2013-01-11 12:03:00,52.0,51.0,30.21,NNE,15,7.0,13.0,97,0.02,,,0.24,,2013-01-11 17:03:00,
2013-01-11 12:12:00,52.0,51.0,30.21,NNE,15,7.0,13.0,97,0.02,,,0.24,,2013-01-11 17:12:00,
2013-01-11 12:22:00,51.0,50.0,30.20,East,95,0.0,4.0,98,0.03,,,0.25,,2013-01-11 17:22:00,
2013-01-11 12:33:00,51.0,50.0,30.19,East,96,1.0,3.0,97,0.04,,,0.26,,2013-01-11 17:33:00,
2013-01-11 12:43:00,51.0,50.0,30.19,East,96,1.0,3.0,97,0.04,,,0.26,,2013-01-11 17:43:00,
2013-01-11 12:53:00,51.0,50.0,30.19,North,355,7.0,11.0,97,0.03,,,0.26,,2013-01-11 17:53:00,
2013-01-11 13:04:00,51.0,50.0,30.19,NE,38,1.0,7.0,97,0.03,,,0.27,,2013-01-11 18:04:00,
2013-01-11 13:13:00,51.0,50.0,30.19,NE,38,1.0,7.0,97,0.03,,,0.27,,2013-01-11 18:13:00,
2013-01-11 13:23:00,50.0,49.0,30.19,NE,38,3.0,7.0,97,0.03,,,0.28,,2013-01-11 18:23:00,
2013-01-11 13:33:00,50.0,49.0,30.18,ENE,76,3.0,9.0,97,0.02,,,0.28,,2013-01-11 18:33:00,
2013-01-11 13:43:00,50.0,49.0,30.18,ENE,76,3.0,9.0,97,0.02,,,0.28,,2013-01-11 18:43:00,
2013-01-11 13:53:00,50.0,49.0,30.17,ESE,113,0.0,6.0,97,0.03,,,0.28,,2013-01-11 18:53:00,
2013-01-11 14:03:00,51.0,50.0,30.17,NE,55,1.0,5.0,97,0.03,,,0.30,,2013-01-11 19:03:00,
2013-01-11 14:12:00,51.0,50.0,30.17,NE,55,1.0,5.0,97,0.03,,,0.30,,2013-01-11 19:12:00,
2013-01-11 14:22:00,50.0,49.0,30.16,NE,37,7.0,11.0,97,0.02,,,0.30,,2013-01-11 19:22:00,
2013-01-11 14:33:00,51.0,50.0,30.17,ENE,71,0.0,7.0,97,0.02,,,0.30,,2013-01-11 19:33:00,
2013-01-11 14:43:00,51.0,50.0,30.17,ENE,71,0.0,7.0,97,0.02,,,0.30,,2013-01-11 19:43:00,
2013-01-11 14:53:00,51.0,50.0,30.17,NNE,27,2.0,7.0,97,0.01,,,0.30,,2013-01-11 19:53:00,
2013-01-11 15:03:00,51.0,50.0,30.17,NE,53,4.0,9.0,97,0.00,,,0.30,,2013-01-11 20:03:00,
2013-01-11 15:12:00,51.0,50.0,30.17,NE,53,4.0,9.0,97,0.00,,,0.30,,2013-01-11 20:12:00,
2013-01-11 15:22:00,51.0,50.0,30.17,NNE,16,4.0,6.0,97,0.00,,,0.30,,2013-01-11 20:22:00,
2013-01-11 15:33:00,51.0,50.0,30.17,NE,55,2.0,8.0,97,0.00,,,0.30,,2013-01-11 20:33:00,
2013-01-11 15:43:00,51.0,50.0,30.17,NE,55,2.0,8.0,97,0.00,,,0.30,,2013-01-11 20:43:00,
2013-01-11 15:52:00,51.0,50.0,30.16,NE,41,3.0,8.0,97,0.00,,,0.30,,2013-01-11 20:52:00,
2013-01-11 16:03:00,51.0,50.0,30.16,NNE,19,4.0,7.0,97,0.00,,,0.30,,2013-01-11 21:03:00,
2013-01-11 16:13:00,51.0,50.0,30.16,NNE,19,4.0,7.0,97,0.00,,,0.30,,2013-01-11 21:13:00,
2013-01-11 16:23:00,51.0,50.0,30.15,NE,47,0.0,2.0,97,0.00,,,0.30,,2013-01-11 21:23:00,
2013-01-11 16:33:00,51.0,50.0,30.15,East,94,0.0,1.0,97,0.00,,,0.30,,2013-01-11 21:33:00,
2013-01-11 16:42:00,51.0,50.0,30.15,East,94,0.0,1.0,97,0.00,,,0.30,,2013-01-11 21:42:00,
2013-01-11 16:52:00,51.0,50.0,30.15,East,94,0.0,1.0,97,0.00,,,0.30,,2013-01-11 21:52:00,
2013-01-11 17:03:00,51.0,50.0,30.16,ENE,61,2.0,7.0,97,0.00,,,0.30,,2013-01-11 22:03:00,
2013-01-11 17:12:00,51.0,50.0,30.16,ENE,61,2.0,7.0,97,0.00,,,0.30,,2013-01-11 22:12:00,
2013-01-11 17:23:00,51.0,50.0,30.16,ENE,64,0.0,3.0,97,0.00,,,0.30,,2013-01-11 22:23:00,
2013-01-11 17:33:00,51.0,50.0,30.15,East,80,0.0,3.0,97,0.00,,,0.30,,2013-01-11 22:33:00,
2013-01-11 17:42:00,51.0,50.0,30.15,East,80,0.0,3.0,97,0.00,,,0.30,,2013-01-11 22:42:00,
2013-01-11 17:52:00,51.0,50.0,30.15,NE,36,0.0,5.0,97,0.00,,,0.30,,2013-01-11 22:52:00,
2013-01-11 18:02:00,51.0,50.0,30.15,NE,36,0.0,5.0,97,0.00,,,0.30,,2013-01-11 23:02:00,
2013-01-11 18:13:00,51.0,50.0,30.15,NE,36,0.0,5.0,97,0.00,,,0.30,,2013-01-11 23:13:00,
2013-01-11 18:23:00,51.0,50.0,30.16,East,85,1.0,4.0,97,0.01,,,0.31,,2013-01-11 23:23:00,
2013-01-11 18:33:00,51.0,50.0,30.16,NNE,32,2.0,3.0,98,0.01,,,0.31,,2013-01-11 23:33:00,
2013-01-11 18:43:00,51.0,50.0,30.16,NNE,32,2.0,3.0,98,0.01,,,0.31,,2013-01-11 23:43:00,
2013-01-11 18:53:00,51.0,50.0,30.16,NE,46,2.0,5.0,98,0.01,,,0.31,,2013-01-11 23:53:00,
2013-01-11 19:03:00,51.0,50.0,30.17,NE,44,1.0,5.0,97,0.00,,,0.31,,2013-01-12 00:03:00,
2013-01-11 19:12:00,51.0,50.0,30.17,NE,44,1.0,5.0,97,0.00,,,0.31,,2013-01-12 00:12:00,
2013-01-11 19:23:00,51.0,50.0,30.17,NNE,32,1.0,4.0,97,0.01,,,0.32,,2013-01-12 00:23:00,
2013-01-11 19:33:00,51.0,50.0,30.18,NE,38,2.0,6.0,97,0.01,,,0.32,,2013-01-12 00:33:00,
2013-01-11 19:43:00,51.0,50.0,30.18,NE,38,2.0,6.0,97,0.01,,,0.32,,2013-01-12 00:43:00,
2013-01-11 19:52:00,51.0,50.0,30.18,NE,38,0.0,3.0,97,0.01,,,0.32,,2013-01-12 00:52:00,
2013-01-11 20:03:00,51.0,50.0,30.17,NE,38,0.0,0.0,98,0.01,,,0.32,,2013-01-12 01:03:00,
2013-01-11 20:12:00,51.0,50.0,30.17,NE,38,0.0,0.0,98,0.01,,,0.32,,2013-01-12 01:12:00,
2013-01-11 20:22:00,51.0,50.0,30.18,NE,38,0.0,0.0,98,0.00,,,0.32,,2013-01-12 01:22:00,
2013-01-11 20:33:00,51.0,50.0,30.17,NE,38,0.0,0.0,98,0.01,,,0.33,,2013-01-12 01:33:00,
2013-01-11 20:43:00,51.0,50.0,30.17,NE,38,0.0,0.0,98,0.01,,,0.33,,2013-01-12 01:43:00,
2013-01-11 20:52:00,51.0,50.0,30.16,NE,44,0.0,0.0,98,0.01,,,0.33,,2013-01-12 01:52:00,
2013-01-11 21:02:00,51.0,50.0,30.16,NE,44,0.0,0.0,98,0.01,,,0.33,,2013-01-12 02:02:00,
2013-01-11 21:12:00,51.0,50.0,30.16,NE,44,0.0,0.0,98,0.01,,,0.33,,2013-01-12 02:12:00,
2013-01-11 21:22:00,51.0,50.0,30.17,NE,44,0.0,0.0,98,0.02,,,0.34,,2013-01-12 02:22:00,
2013-01-11 21:33:00,51.0,50.0,30.17,NE,44,0.0,0.0,98,0.01,,,0.34,,2013-01-12 02:33:00,
2013-01-11 21:43:00,51.0,50.0,30.17,NE,44,0.0,0.0,98,0.01,,,0.34,,2013-01-12 02:43:00,
2013-01-11 21:53:00,51.0,50.0,30.17,NE,44,0.0,0.0,98,0.01,,,0.34,,2013-01-12 02:53:00,
2013-01-11 22:03:00,52.0,51.0,30.17,NNE,26,0.0,4.0,98,0.01,,,0.35,,2013-01-12 03:03:00,
2013-01-11 22:12:00,52.0,51.0,30.17,NNE,26,0.0,4.0,98,0.01,,,0.35,,2013-01-12 03:12:00,
2013-01-11 22:22:00,52.0,51.0,30.17,NNE,26,0.0,0.0,98,0.01,,,0.35,,2013-01-12 03:22:00,
2013-01-11 22:33:00,52.0,51.0,30.17,NNE,26,0.0,2.0,98,0.02,,,0.36,,2013-01-12 03:33:00,
2013-01-11 22:43:00,52.0,51.0,30.17,NNE,26,0.0,2.0,98,0.02,,,0.36,,2013-01-12 03:43:00,
2013-01-11 22:52:00,52.0,51.0,30.17,SSE,159,1.0,3.0,98,0.03,,,0.37,,2013-01-12 03:52:00,
2013-01-11 23:02:00,52.0,51.0,30.18,SSE,159,0.0,2.0,98,0.02,,,0.37,,2013-01-12 04:02:00,
2013-01-11 23:12:00,52.0,51.0,30.18,SSE,159,0.0,2.0,98,0.02,,,0.37,,2013-01-12 04:12:00,
2013-01-11 23:22:00,52.0,51.0,30.18,SSE,159,0.0,2.0,98,0.02,,,0.37,,2013-01-12 04:22:00,
2013-01-11 23:32:00,52.0,51.0,30.18,SE,126,1.0,3.0,98,0.01,,,0.34,,2013-01-12 04:32:00,
2013-01-11 23:42:00,52.0,51.0,30.18,SE,126,1.0,3.0,98,0.01,,,0.34,,2013-01-12 04:42:00,
2013-01-11 23:52:00,52.0,52.0,30.17,SE,126,0.0,1.0,99,0.00,,,0.34,,2013-01-12 04:52:00,